Regional Weather Roundup
Issued by NWS Albany, NY

Home | Current Version | Previous Version | Text Only | Print | Product List | Glossary On
Versions: 1 2 3 4 5 6 7 8 9 10 11 12 13 14 15 16 17 18 19 20 21 22 23 24 25 26 27 28 29 30 31 32 33 34 35 36 37 38 39 40 41 42 43 44 45 46 47 48 49 50
000
ASUS41 KALY 211410
RWRALY

NEW YORK STATE HOURLY WEATHER ROUNDUP
NATIONAL WEATHER SERVICE ALBANY NY
1000 AM EDT SUN SEP 21 2014

NOTE: "FAIR" INDICATES FEW OR NO CLOUDS BELOW 12,000 FEET WITH NO
SIGNIFICANT WEATHER AND/OR NO OBSTRUCTIONS TO VISIBILITY.

NYZ032-033-038>043-046>054-057>066-NYZ062>081-211500-
EAST


CITY           SKY/WX    TMP DP  RH WIND       PRES   REMARKS
ALBANY         PTSUNNY   69  61  75 S15       29.85F
GLENS FALLS    PTSUNNY   69  61  75 S9G20     29.83F
POUGHKEEPSIE   CLOUDY    67  63  87 W3        29.88F
NEWBURGH       CLOUDY    64  64 100 CALM      29.90F FOG
MONTGOMERY     CLOUDY    67  62  84 VRB3      29.88F
WHITE PLAINS   FOG       68  66  93 W3        29.88F VSB 1/4
ISLIP          CLOUDY    74  67  78 SE6       29.86F
NEW YORK CITY  CLOUDY    71  67  87 CALM      29.87F
CENTRAL PARK   CLOUDY    71  67  87 CALM      29.90S FOG
$$

NYZ005>009-017-018-044>046-055-056-211500-
CENTRAL


CITY           SKY/WX    TMP DP  RH WIND       PRES   REMARKS
FULTON         CLOUDY    70  60  70 S9        29.69F
SYRACUSE       PTSUNNY   75  61  61 S17G23    29.71F
ROME           PTSUNNY   67  60  78 E7        29.76F
ELMIRA         MOSUNNY   72  61  68 VRB3      29.75F
BINGHAMTON     SUNNY     66  59  78 S10G18    29.83S
MONTICELLO     MOSUNNY   64  57  77 SE8       29.91F
$$

NYZ026>034-041>043-211500-
NORTH


CITY           SKY/WX    TMP DP  RH WIND       PRES   REMARKS
WATERTOWN      LGT RAIN  71  58  63 S9        29.68F
FORT DRUM      NOT AVBL
MASSENA        LGT RAIN  68  62  81 S7        29.69F
SARANAC LAKE   CLOUDY    66  57  72 SW15      29.77F
PLATTSBURGH    PTSUNNY   67  57  70 S10       29.75F
$$

NYZ001>004-010>016-019>021-211500-
WEST


CITY           SKY/WX    TMP DP  RH WIND       PRES   REMARKS
NIAGARA FALLS  LGT RAIN  68  65  90 S17       29.59F
BUFFALO        CLOUDY    70  64  81 S17G29    29.61F
DUNKIRK        CLOUDY    70  65  84 S20G28    29.63S
JAMESTOWN      CLOUDY    63  63 100 S9G17     29.71S
WELLSVILLE     LGT RAIN  64  60  87 S9G17     29.78F
ROCHESTER      RAIN      68  64  87 S9        29.65F FOG
PENN YAN       PTSUNNY   69  59  70 SW14      29.73F
$$

             KEY
       WCI = WIND CHILL INDEX
       VSB = VISIBILITY
       HX  = HEAT INDEX
$$


USA.gov is the U.S. government's official web portal to all federal, state and local government web resources and services.